Regional Weather Roundup
Issued by NWS Cleveland, OH

Home | Current Version | Previous Version | Graphics & Text | Print | Product List | Glossary On
Versions: 1 2 3 4 5 6 7 8 9 10 11 12 13 14 15 16 17 18 19 20 21 22 23 24 25 26 27 28 29 30 31 32 33 34 35 36 37 38 39 40 41 42 43 44 45 46 47 48 49 50
000
ASUS41 KCLE 251902
RWRCLE
OHIO REGIONAL WEATHER ROUNDUP
NATIONAL WEATHER SERVICE CLEVELAND, OH
300 PM EDT SUN SEP 25 2016

NOTE: "FAIR" INDICATES FEW OR NO CLOUDS BELOW 12,000 FEET WITH NO
SIGNIFICANT WEATHER AND/OR OBSTRUCTIONS TO VISIBILITY.

OHZ001>008-015>018-024>027-034-035-043-044-252000-
   NORTHWEST OHIO

CITY           SKY/WX    TMP DP  RH WIND       PRES   REMARKS
DEFIANCE       SUNNY     77  55  46 CALM      30.10F
FINDLAY        SUNNY     79  47  32 E5        30.10F
TOLEDO EXPRESS SUNNY     74  46  36 E8        30.11F
TOLEDO EXEC    SUNNY     74  50  42 E9        30.13F
LIMA           SUNNY     79  59  50 CALM      30.10F
$$

OHZ009>014-019>023-028>033-038-089-252000-
   NORTHEAST OHIO

CITY           SKY/WX    TMP DP  RH WIND       PRES   REMARKS
CLE-HOPKINS    MOSUNNY   74  49  41 N13       30.15F
CLE-LAKEFRONT  SUNNY     70  50  49 N12       30.14F
CUY CO. ARPT   PTSUNNY   73  54  49 N12       30.15F
LORAIN-ELYRIA  SUNNY     74  40  29 VRB5      30.14F
ASHTABULA      SUNNY     69  37  30 E8        30.17F
AKRON-CANTON   MOSUNNY   73  44  35 NE5       30.15F
WOOSTER        SUNNY     74  44  34 VRB5      30.14F
MANSFIELD      SUNNY     77  38  24 VRB3      30.14F
YOUNGSTOWN     PTSUNNY   70  42  36 VRB5      30.15F
$$

OHZ042-051>053-060>062-070>072-077>081-252000-
  SOUTHWEST OHIO

CITY           SKY/WX    TMP DP  RH WIND       PRES   REMARKS
CINC-COVINGTON MOSUNNY   85  65  51 CALM      30.09F
CINC-LUNKEN    SUNNY     83  66  56 CALM      30.08F
HAMILTON       SUNNY     84  65  52 CALM      30.09F
DAYTON         MOSUNNY   80  61  52 CALM      30.11F
WRIGHT-PAT AFB MOSUNNY   81  62  52 VRB3      30.09F
DAYTON GENERAL SUNNY     82  62  50 CALM      30.09F
WILMINGTON     SUNNY     83  63  50 CALM      30.09F
$$

OHZ036-037-039>041-045>050-054>059-063>069-073>076-082>088-252000-
  CENTRAL AND SOUTHEAST OHIO

CITY           SKY/WX    TMP DP  RH WIND       PRES   REMARKS
COLUMBUS       SUNNY     79  52  38 VRB3      30.10F
OSU AIRPORT    SUNNY     79  54  41 NW5       30.11F
BOLTON FIELD   SUNNY     81  57  44 CALM      30.11F
RICKENBACK AFB SUNNY     78  54  43 CALM      30.09F
NEWARK         SUNNY     78  47  33 CALM      30.11F
MARION         SUNNY     79  44  28 SW6       30.12F
LANCASTER      SUNNY     80  48  32 S5        30.11F
ZANESVILLE     SUNNY     79  46  31 E5        30.11F
NEW PHILLY     SUNNY     78  48  34 VRB3      30.13F
$$




USA.gov is the U.S. government's official web portal to all federal, state and local government web resources and services.